| time (UTC) | temp F | wind direction | speed MPH | gust MPH | rain 1hr in | rain 24hr in | rain mn in | humidity % | barometer mb |
| 20260508115000 | 64 | 77 | 1.0 | 2.0 | 0.00 | 0.92 | 0.00 | 93 | 1015.4 |
| 20260508114558 | 64 | 77 | 0.0 | 2.0 | 0.00 | 0.92 | 0.00 | 93 | 1015.1 |
| 20260508114000 | 64 | 77 | 1.0 | 3.0 | 0.00 | 0.92 | 0.00 | 93 | 1015.2 |
| 20260508113100 | 64 | 78 | 0.0 | 3.0 | 0.00 | 0.92 | 0.00 | 92 | 1014.7 |
| 20260508113001 | 64 | 78 | 1.0 | 3.0 | 0.00 | 0.92 | 0.00 | 92 | 1014.8 |
| 20260508112004 | 64 | 78 | 1.0 | 2.0 | 0.00 | 0.92 | 0.00 | 93 | 1014.4 |
| 20260508111601 | 64 | 78 | 1.0 | 2.0 | 0.00 | 0.92 | 0.00 | 92 | 1014.3 |
| 20260508111000 | 64 | 78 | 1.0 | 3.0 | 0.00 | 0.92 | 0.00 | 92 | 1014.2 |
| 20260508110103 | 64 | 78 | 1.0 | 3.0 | 0.00 | 0.92 | 0.00 | 91 | 1014.0 |
| 20260508104557 | 64 | 72 | 0.0 | 1.0 | 0.00 | 0.92 | 0.00 | 91 | 1014.3 |
| 20260508103958 | 64 | 72 | 1.0 | 3.0 | 0.00 | 0.92 | 0.00 | 91 | 1014.3 |
| 20260508103128 | 64 | 71 | 2.0 | 5.0 | 0.00 | 0.92 | 0.00 | 91 | 1013.8 |
| 20260508102959 | 64 | 75 | 2.0 | 4.0 | 0.00 | 0.92 | 0.00 | 91 | 1014.1 |
| 20260508101614 | 64 | 80 | 0.0 | 4.0 | 0.00 | 0.92 | 0.00 | 91 | 1014.0 |
| 20260508100959 | 64 | 76 | 1.0 | 2.0 | 0.00 | 0.92 | 0.00 | 91 | 1014.2 |
| 20260508100057 | 64 | 76 | 1.0 | 3.0 | 0.00 | 0.92 | 0.00 | 91 | 1013.9 |
| 20260508094959 | 64 | 76 | 0.0 | 2.0 | 0.00 | 0.92 | 0.00 | 92 | 1014.0 |
| 20260508094612 | 64 | 76 | 0.0 | 4.0 | 0.00 | 0.92 | 0.00 | 92 | 1013.7 |
| 20260508093959 | 64 | 76 | 2.0 | 4.0 | 0.00 | 0.92 | 0.00 | 91 | 1013.7 |
| 20260508093057 | 64 | 75 | 1.0 | 3.0 | 0.00 | 0.92 | 0.00 | 92 | 1013.5 |
| 20260508092959 | 64 | 75 | 1.0 | 3.0 | 0.00 | 0.92 | 0.00 | 92 | 1013.7 |
| 20260508091959 | 64 | 74 | 1.0 | 3.0 | 0.00 | 0.92 | 0.00 | 93 | 1013.8 |
| 20260508091557 | 64 | 74 | 0.0 | 3.0 | 0.00 | 0.92 | 0.00 | 92 | 1013.8 |
| 20260508090959 | 64 | 74 | 1.0 | 2.0 | 0.00 | 0.92 | 0.00 | 93 | 1014.0 |
| 20260508090113 | 64 | 74 | 0.0 | 3.0 | 0.00 | 0.92 | 0.00 | 92 | 1013.5 |
| 20260508090005 | 64 | 74 | 2.0 | 3.0 | 0.00 | 0.92 | 0.00 | 92 | 1013.7 |
| 20260508084959 | 64 | 74 | 2.0 | 7.0 | 0.00 | 0.92 | 0.00 | 92 | 1013.6 |
| 20260508084600 | 64 | 77 | 1.0 | 3.0 | 0.00 | 0.92 | 0.00 | 92 | 1013.4 |
| 20260508083959 | 64 | 77 | 1.0 | 3.0 | 0.00 | 0.92 | 0.00 | 92 | 1013.4 |
| 20260508083120 | 64 | 77 | 1.0 | 3.0 | 0.00 | 0.92 | 0.00 | 92 | 1013.2 |
| 20260508082959 | 64 | 77 | 1.0 | 4.0 | 0.00 | 0.92 | 0.00 | 92 | 1013.5 |
| 20260508082000 | 64 | 77 | 0.0 | 2.0 | 0.00 | 0.92 | 0.00 | 93 | 1013.8 |
| 20260508081556 | 64 | 77 | 0.0 | 2.0 | 0.00 | 0.92 | 0.00 | 93 | 1013.5 |
| 20260508080959 | 64 | 77 | 1.0 | 3.0 | 0.00 | 0.92 | 0.00 | 92 | 1013.5 |
| 20260508080056 | 64 | 78 | 0.0 | 3.0 | 0.00 | 0.92 | 0.00 | 92 | 1013.1 |
| 20260508075958 | 64 | 78 | 2.0 | 3.0 | 0.00 | 0.92 | 0.00 | 92 | 1013.3 |
| 20260508074958 | 63 | 76 | 1.0 | 5.0 | 0.00 | 0.92 | 0.00 | 93 | 1013.6 |
| 20260508074556 | 63 | 33 | 2.0 | 4.0 | 0.00 | 0.92 | 0.00 | 93 | 1013.3 |
| 20260508073959 | 63 | 14 | 1.0 | 3.0 | 0.00 | 0.92 | 0.00 | 93 | 1013.7 |
| 20260508073056 | 64 | 13 | 0.0 | 2.0 | 0.00 | 0.92 | 0.00 | 94 | 1013.3 |
| 20260508072957 | 64 | 13 | 1.0 | 2.0 | 0.00 | 0.92 | 0.00 | 94 | 1013.6 |
| 20260508071959 | 64 | 13 | 1.0 | 2.0 | 0.00 | 0.92 | 0.00 | 94 | 1013.6 |
| 20260508071556 | 64 | 13 | 0.0 | 2.0 | 0.00 | 0.92 | 0.00 | 94 | 1013.6 |
| 20260508070056 | 64 | 13 | 0.0 | 2.0 | 0.00 | 0.92 | 0.00 | 94 | 1013.4 |
| 20260508070002 | 64 | 13 | 1.0 | 2.0 | 0.00 | 0.92 | 0.00 | 94 | 1013.6 |
| 20260508064601 | 64 | 13 | 0.0 | 2.0 | 0.00 | 0.92 | 0.00 | 95 | 1013.8 |
| 20260508063959 | 64 | 13 | 1.0 | 3.0 | 0.00 | 0.92 | 0.00 | 94 | 1014.1 |
| 20260508063056 | 64 | 13 | 0.0 | 2.0 | 0.00 | 0.92 | 0.00 | 94 | 1014.0 |
| 20260508062959 | 64 | 13 | 1.0 | 2.0 | 0.00 | 0.92 | 0.00 | 94 | 1014.3 |
| 20260508061559 | 64 | 13 | 0.0 | 3.0 | 0.00 | 0.92 | 0.00 | 95 | 1014.0 |
| 20260508061000 | 64 | 13 | 0.0 | 2.0 | 0.00 | 0.92 | 0.00 | 95 | 1014.3 |
| 20260508060057 | 64 | 13 | 0.0 | 2.0 | 0.00 | 0.92 | 0.00 | 95 | 1014.4 |
| 20260508060002 | 64 | 13 | 1.0 | 2.0 | 0.00 | 0.92 | 0.00 | 95 | 1014.6 |
| 20260508055004 | 64 | 13 | 0.0 | 2.0 | 0.00 | 0.92 | 0.00 | 95 | 1014.6 |
| 20260508054605 | 64 | 13 | 0.0 | 2.0 | 0.00 | 0.92 | 0.00 | 95 | 1014.4 |
| 20260508053101 | 64 | 13 | 1.0 | 2.0 | 0.00 | 0.92 | 0.00 | 95 | 1014.4 |
| 20260508053005 | 64 | 13 | 1.0 | 2.0 | 0.00 | 0.92 | 0.00 | 95 | 1014.6 |
| 20260508052004 | 64 | 13 | 0.0 | 2.0 | 0.00 | 0.92 | 0.00 | 95 | 1014.5 |
| 20260508051602 | 65 | 13 | 0.0 | 2.0 | 0.00 | 0.92 | 0.00 | 95 | 1014.4 |
| 20260508051004 | 65 | 13 | 1.0 | 2.0 | 0.00 | 0.92 | 0.00 | 95 | 1014.6 |
| 20260508050100 | 65 | 13 | 1.0 | 2.0 | 0.00 | 0.92 | 0.00 | 95 | 1014.4 |
| 20260508050005 | 65 | 13 | 0.0 | 2.0 | 0.00 | 0.92 | 0.92 | 95 | 1014.7 |
| 20260508045004 | 65 | 13 | 1.0 | 2.0 | 0.00 | 0.92 | 0.92 | 94 | 1014.8 |
| 20260508044602 | 66 | 13 | 0.0 | 3.0 | 0.00 | 0.92 | 0.92 | 95 | 1014.7 |
| 20260508044004 | 66 | 13 | 0.0 | 3.0 | 0.00 | 0.92 | 0.92 | 94 | 1014.7 |
| 20260508043104 | 66 | 13 | 0.0 | 3.0 | 0.00 | 0.92 | 0.92 | 94 | 1014.9 |
| 20260508042004 | 66 | 11 | 1.0 | 3.0 | 0.00 | 0.92 | 0.92 | 94 | 1014.7 |
| 20260508041601 | 66 | 21 | 1.0 | 3.0 | 0.00 | 0.92 | 0.92 | 94 | 1014.4 |
| 20260508041003 | 66 | 17 | 1.0 | 3.0 | 0.00 | 0.92 | 0.92 | 94 | 1014.6 |
| 20260508040059 | 67 | 15 | 1.0 | 4.0 | 0.00 | 0.92 | 0.92 | 94 | 1014.3 |
| 20260508040006 | 67 | 15 | 1.0 | 4.0 | 0.00 | 0.92 | 0.92 | 94 | 1014.5 |
| 20260508040002 | 67 | 15 | 1.0 | 4.0 | 0.00 | 0.92 | 0.92 | 94 | 1014.3 |
| 20260508035005 | 67 | 14 | 1.0 | 5.0 | 0.00 | 0.92 | 0.92 | 94 | 1014.5 |
| 20260508034604 | 67 | 14 | 1.0 | 5.0 | 0.00 | 0.92 | 0.92 | 94 | 1014.3 |
| 20260508034013 | 67 | 9 | 1.0 | 4.0 | 0.00 | 0.92 | 0.92 | 93 | 1014.4 |
| 20260508033059 | 67 | 355 | 0.0 | 2.0 | 0.00 | 0.92 | 0.92 | 93 | 1014.2 |
| 20260508033004 | 67 | 355 | 1.0 | 2.0 | 0.00 | 0.92 | 0.92 | 93 | 1014.5 |
| 20260508032004 | 68 | 355 | 0.0 | 3.0 | 0.00 | 0.92 | 0.92 | 93 | 1014.7 |
| 20260508031600 | 68 | 355 | 0.0 | 1.0 | 0.00 | 0.92 | 0.92 | 93 | 1014.4 |
| 20260508031004 | 68 | 355 | 0.0 | 1.0 | 0.00 | 0.92 | 0.92 | 93 | 1014.7 |
| 20260508030108 | 68 | 355 | 0.0 | 3.0 | 0.00 | 0.92 | 0.92 | 92 | 1014.7 |
| 20260508030001 | 68 | 355 | 0.0 | 3.0 | 0.00 | 0.92 | 0.92 | 92 | 1014.7 |
| 20260508025004 | 69 | 351 | 1.0 | 3.0 | 0.00 | 0.92 | 0.92 | 92 | 1015.1 |
| 20260508024559 | 69 | 351 | 0.0 | 3.0 | 0.00 | 0.92 | 0.92 | 92 | 1014.7 |
| 20260508024004 | 69 | 351 | 1.0 | 3.0 | 0.00 | 0.92 | 0.92 | 92 | 1014.8 |
| 20260508023058 | 69 | 351 | 1.0 | 3.0 | 0.00 | 0.92 | 0.92 | 92 | 1014.5 |
| 20260508023005 | 69 | 351 | 1.0 | 3.0 | 0.00 | 0.92 | 0.92 | 92 | 1014.8 |
| 20260508022004 | 70 | 340 | 1.0 | 3.0 | 0.00 | 0.92 | 0.92 | 92 | 1014.7 |
| 20260508021559 | 70 | 340 | 1.0 | 2.0 | 0.00 | 0.92 | 0.92 | 92 | 1014.5 |
| 20260508021004 | 70 | 340 | 0.0 | 2.0 | 0.00 | 0.92 | 0.92 | 92 | 1014.5 |
| 20260508020059 | 70 | 340 | 0.0 | 2.0 | 0.00 | 0.92 | 0.92 | 92 | 1014.2 |
| 20260508020005 | 70 | 340 | 0.0 | 2.0 | 0.00 | 0.92 | 0.92 | 92 | 1014.5 |
| 20260508015004 | 71 | 340 | 1.0 | 2.0 | 0.00 | 0.92 | 0.92 | 92 | 1014.2 |
| 20260508014559 | 71 | 340 | 0.0 | 4.0 | 0.00 | 0.92 | 0.92 | 93 | 1013.8 |
| 20260508014004 | 71 | 340 | 1.0 | 4.0 | 0.00 | 0.92 | 0.92 | 93 | 1014.1 |
| 20260508013059 | 71 | 327 | 1.0 | 3.0 | 0.00 | 0.92 | 0.92 | 94 | 1013.4 |
| 20260508012004 | 71 | 321 | 0.0 | 1.0 | 0.00 | 0.92 | 0.92 | 93 | 1013.4 |
| 20260508011559 | 72 | 321 | 0.0 | 1.0 | 0.00 | 0.92 | 0.92 | 93 | 1013.1 |
| 20260508011004 | 72 | 321 | 0.0 | 1.0 | 0.00 | 0.92 | 0.92 | 93 | 1013.3 |
| 20260508010058 | 72 | 321 | 0.0 | 1.0 | 0.00 | 0.92 | 0.92 | 93 | 1012.9 |
| 20260508010004 | 72 | 321 | 0.0 | 1.0 | 0.00 | 0.92 | 0.92 | 93 | 1013.1 |
| 20260508005005 | 72 | 321 | 0.0 | 0.0 | 0.00 | 0.92 | 0.92 | 93 | 1013.1 |
| 20260508004601 | 72 | 321 | 0.0 | 0.0 | 0.00 | 0.92 | 0.92 | 93 | 1012.9 |
| 20260508004004 | 72 | 321 | 0.0 | 2.0 | 0.00 | 0.92 | 0.92 | 93 | 1013.2 |
| 20260508003107 | 73 | 321 | 0.0 | 2.0 | 0.00 | 0.92 | 0.92 | 92 | 1013.0 |
| 20260508003005 | 73 | 321 | 0.0 | 1.0 | 0.00 | 0.92 | 0.92 | 91 | 1013.2 |
| 20260508002002 | 73 | 321 | 0.0 | 0.0 | 0.00 | 0.92 | 0.92 | 91 | 1013.4 |
| 20260508001600 | 73 | 321 | 0.0 | 0.0 | 0.00 | 0.92 | 0.92 | 91 | 1013.1 |
| 20260508000006 | 73 | 314 | 1.0 | 2.0 | 0.00 | 0.92 | 0.92 | 90 | 1013.0 |
| 20260508000001 | 73 | 314 | 0.0 | 2.0 | 0.00 | 0.92 | 0.92 | 90 | 1012.7 |
| 20260507235004 | 74 | 314 | 0.0 | 1.0 | 0.00 | 0.92 | 0.92 | 90 | 1013.2 |
| 20260507234601 | 74 | 314 | 0.0 | 1.0 | 0.00 | 0.92 | 0.92 | 90 | 1012.8 |
| 20260507234004 | 74 | 314 | 1.0 | 2.0 | 0.00 | 0.92 | 0.92 | 90 | 1013.1 |
| 20260507233059 | 74 | 313 | 0.0 | 3.0 | 0.00 | 0.92 | 0.92 | 90 | 1012.7 |
| 20260507233004 | 74 | 313 | 1.0 | 3.0 | 0.00 | 0.92 | 0.92 | 89 | 1013.1 |
| 20260507231602 | 75 | 310 | 0.0 | 2.0 | 0.00 | 0.92 | 0.92 | 89 | 1012.8 |
| 20260507231003 | 75 | 310 | 1.0 | 2.0 | 0.00 | 0.92 | 0.92 | 90 | 1013.0 |
| 20260507230101 | 75 | 310 | 0.0 | 2.0 | 0.00 | 0.92 | 0.92 | 89 | 1012.8 |
| 20260507230005 | 75 | 310 | 1.0 | 2.0 | 0.00 | 0.92 | 0.92 | 90 | 1013.1 |
| 20260507225004 | 75 | 310 | 1.0 | 2.0 | 0.00 | 0.92 | 0.92 | 89 | 1013.0 |
| 20260507224616 | 75 | 310 | 0.0 | 1.0 | 0.00 | 0.92 | 0.92 | 89 | 1012.8 |
| 20260507224002 | 76 | 310 | 0.0 | 0.0 | 0.00 | 0.92 | 0.92 | 89 | 1012.8 |
| 20260507223101 | 76 | 310 | 0.0 | 2.0 | 0.00 | 0.92 | 0.92 | 87 | 1012.6 |
| 20260507223005 | 76 | 310 | 0.0 | 2.0 | 0.00 | 0.92 | 0.92 | 87 | 1012.9 |
| 20260507222003 | 76 | 310 | 0.0 | 2.0 | 0.00 | 0.92 | 0.92 | 89 | 1012.8 |
| 20260507221559 | 76 | 310 | 0.0 | 2.0 | 0.00 | 0.92 | 0.92 | 87 | 1012.5 |
| 20260507221004 | 76 | 310 | 1.0 | 2.0 | 0.00 | 0.92 | 0.92 | 87 | 1012.7 |
| 20260507220058 | 76 | 309 | 0.0 | 3.0 | 0.00 | 0.92 | 0.92 | 88 | 1012.3 |
| 20260507220005 | 76 | 309 | 1.0 | 3.0 | 0.00 | 0.92 | 0.92 | 88 | 1012.6 |
| 20260507214605 | 76 | 307 | 1.0 | 3.0 | 0.00 | 0.92 | 0.92 | 89 | 1012.4 |
| 20260507213058 | 76 | 307 | 0.0 | 3.0 | 0.00 | 0.92 | 0.92 | 90 | 1012.5 |
| 20260507212005 | 76 | 307 | 1.0 | 2.0 | 0.00 | 0.92 | 0.92 | 91 | 1012.7 |
| 20260507211628 | 76 | 307 | 1.0 | 3.0 | 0.00 | 0.92 | 0.92 | 89 | 1012.4 |
| 20260507211005 | 76 | 308 | 1.0 | 3.0 | 0.00 | 0.92 | 0.92 | 90 | 1012.7 |
| 20260507210059 | 76 | 308 | 1.0 | 4.0 | 0.00 | 0.92 | 0.92 | 89 | 1012.4 |
| 20260507210005 | 76 | 308 | 1.0 | 4.0 | 0.00 | 0.95 | 0.92 | 89 | 1012.7 |
| 20260507205004 | 77 | 350 | 1.0 | 2.0 | 0.00 | 0.95 | 0.92 | 89 | 1012.6 |
| 20260507204605 | 77 | 350 | 1.0 | 3.0 | 0.00 | 0.95 | 0.92 | 89 | 1012.4 |
| 20260507203106 | 77 | 355 | 0.0 | 3.0 | 0.00 | 0.95 | 0.92 | 89 | 1012.4 |
| 20260507203002 | 77 | 351 | 1.0 | 3.0 | 0.00 | 0.95 | 0.92 | 90 | 1012.7 |
| 20260507202004 | 77 | 350 | 1.0 | 3.0 | 0.00 | 0.95 | 0.92 | 90 | 1012.5 |
| 20260507201612 | 77 | 350 | 0.0 | 3.0 | 0.00 | 0.95 | 0.92 | 89 | 1012.3 |
| 20260507201004 | 77 | 63 | 0.0 | 2.0 | 0.00 | 0.95 | 0.92 | 91 | 1012.5 |
| 20260507200104 | 77 | 63 | 0.0 | 2.0 | 0.00 | 0.95 | 0.92 | 87 | 1012.4 |
| 20260507200004 | 78 | 63 | 1.0 | 2.0 | 0.00 | 0.95 | 0.92 | 87 | 1012.7 |
| 20260507195003 | 78 | 63 | 1.0 | 3.0 | 0.00 | 0.95 | 0.92 | 87 | 1012.8 |
| 20260507194601 | 78 | 62 | 1.0 | 3.0 | 0.00 | 0.95 | 0.92 | 88 | 1012.6 |
| 20260507193057 | 77 | 63 | 1.0 | 3.0 | 0.00 | 0.95 | 0.92 | 89 | 1012.6 |
| 20260507193000 | 77 | 63 | 1.0 | 2.0 | 0.00 | 0.95 | 0.92 | 88 | 1012.9 |
| 20260507192000 | 77 | 63 | 1.0 | 5.0 | 0.00 | 0.95 | 0.92 | 88 | 1012.9 |
| 20260507191558 | 76 | 74 | 0.0 | 3.0 | 0.00 | 0.95 | 0.92 | 91 | 1012.6 |
| 20260507191000 | 76 | 75 | 0.0 | 1.0 | 0.00 | 0.95 | 0.92 | 91 | 1013.0 |
| 20260507190057 | 76 | 75 | 0.0 | 3.0 | 0.00 | 0.95 | 0.92 | 90 | 1012.7 |
| 20260507190006 | 76 | 75 | 1.0 | 3.0 | 0.00 | 0.95 | 0.92 | 91 | 1013.0 |
| 20260507185004 | 75 | 77 | 1.0 | 4.0 | 0.00 | 0.95 | 0.92 | 94 | 1013.0 |
| 20260507184559 | 74 | 77 | 1.0 | 5.0 | 0.00 | 0.95 | 0.92 | 94 | 1012.8 |
| 20260507184004 | 74 | 64 | 2.0 | 5.0 | 0.00 | 0.95 | 0.92 | 95 | 1013.0 |
| 20260507183059 | 72 | 267 | 2.0 | 5.0 | 0.00 | 0.95 | 0.92 | 97 | 1012.9 |
| 20260507183005 | 72 | 98 | 2.0 | 5.0 | 0.00 | 0.95 | 0.92 | 97 | 1013.2 |
| 20260507182004 | 72 | 70 | 1.0 | 5.0 | 0.00 | 0.95 | 0.92 | 99 | 1013.3 |
| 20260507181559 | 72 | 295 | 0.0 | 2.0 | 0.00 | 0.95 | 0.92 | 100 | 1013.1 |
| 20260507181003 | 71 | 294 | 1.0 | 2.0 | 0.00 | 0.95 | 0.92 | 100 | 1013.5 |
| 20260507180100 | 71 | 293 | 0.0 | 3.0 | 0.00 | 0.95 | 0.92 | 100 | 1013.5 |
| 20260507180003 | 71 | 293 | 1.0 | 3.0 | 0.00 | 0.97 | 0.92 | 100 | 1013.7 |
| 20260507174959 | 71 | 288 | 1.0 | 5.0 | 0.00 | 0.97 | 0.92 | 100 | 1013.7 |
| 20260507174559 | 71 | 307 | 1.0 | 5.0 | 0.00 | 0.97 | 0.92 | 100 | 1013.3 |
| 20260507173102 | 71 | 302 | 0.0 | 5.0 | 0.00 | 0.97 | 0.92 | 100 | 1013.5 |
| 20260507173001 | 71 | 302 | 1.0 | 5.0 | 0.00 | 0.97 | 0.92 | 100 | 1013.9 |
| 20260507172000 | 70 | 49 | 1.0 | 3.0 | 0.00 | 0.97 | 0.92 | 100 | 1014.1 |
| 20260507171559 | 70 | 51 | 1.0 | 3.0 | 0.00 | 0.97 | 0.92 | 99 | 1014.0 |
| 20260507171000 | 70 | 50 | 2.0 | 3.0 | 0.01 | 0.97 | 0.92 | 100 | 1014.4 |
| 20260507170058 | 71 | 59 | 1.0 | 4.0 | 0.03 | 0.97 | 0.92 | 100 | 1014.1 |
| 20260507165000 | 71 | 82 | 1.0 | 4.0 | 0.03 | 0.97 | 0.92 | 100 | 1014.2 |
| 20260507164559 | 71 | 100 | 0.0 | 3.0 | 0.04 | 0.97 | 0.92 | 100 | 1013.9 |
| 20260507164000 | 71 | 338 | 1.0 | 3.0 | 0.05 | 0.97 | 0.92 | 100 | 1014.2 |
| 20260507163057 | 71 | 317 | 0.0 | 4.0 | 0.05 | 0.97 | 0.92 | 100 | 1013.9 |
| 20260507163000 | 71 | 317 | 1.0 | 4.0 | 0.05 | 0.97 | 0.92 | 100 | 1014.2 |
| 20260507162000 | 72 | 14 | 1.0 | 3.0 | 0.08 | 0.97 | 0.92 | 100 | 1014.0 |
| 20260507161601 | 72 | 331 | 1.0 | 3.0 | 0.12 | 0.97 | 0.92 | 100 | 1014.0 |
| 20260507160959 | 72 | 332 | 1.0 | 3.0 | 0.13 | 0.96 | 0.91 | 100 | 1014.2 |
| 20260507160107 | 72 | 340 | 1.0 | 3.0 | 0.16 | 0.94 | 0.89 | 100 | 1013.7 |
| 20260507160002 | 72 | 139 | 1.0 | 2.0 | 0.16 | 0.97 | 0.89 | 100 | 1013.9 |
| 20260507155004 | 72 | 285 | 0.0 | 2.0 | 0.29 | 0.97 | 0.89 | 100 | 1014.1 |
| 20260507154559 | 72 | 285 | 0.0 | 2.0 | 0.28 | 0.96 | 0.88 | 100 | 1013.9 |
| 20260507154000 | 71 | 286 | 1.0 | 3.0 | 0.29 | 0.95 | 0.87 | 100 | 1014.0 |
| 20260507153101 | 71 | 282 | 0.0 | 2.0 | 0.42 | 0.95 | 0.87 | 100 | 1013.5 |
| 20260507153002 | 71 | 282 | 0.0 | 2.0 | 0.42 | 0.95 | 0.87 | 100 | 1013.8 |
| 20260507152004 | 71 | 289 | 1.0 | 2.0 | 0.39 | 0.92 | 0.84 | 100 | 1013.7 |
| 20260507151559 | 71 | 289 | 0.0 | 2.0 | 0.35 | 0.88 | 0.80 | 100 | 1013.5 |
| 20260507150058 | 71 | 289 | 0.0 | 2.0 | 0.43 | 0.81 | 0.73 | 99 | 1013.3 |
| 20260507150002 | 71 | 289 | 1.0 | 2.0 | 0.44 | 0.81 | 0.73 | 99 | 1013.6 |
| 20260507145000 | 70 | 289 | 0.0 | 1.0 | 0.54 | 0.68 | 0.60 | 99 | 1013.5 |
| 20260507144557 | 70 | 289 | 0.0 | 3.0 | 0.55 | 0.67 | 0.59 | 99 | 1013.0 |
| 20260507143100 | 70 | 295 | 1.0 | 3.0 | 0.45 | 0.53 | 0.45 | 98 | 1013.3 |
| 20260507143002 | 70 | 295 | 1.0 | 3.0 | 0.45 | 0.53 | 0.45 | 98 | 1013.4 |
| 20260507142000 | 71 | 295 | 1.0 | 2.0 | 0.45 | 0.53 | 0.45 | 98 | 1013.3 |
| 20260507141559 | 71 | 295 | 0.0 | 3.0 | 0.45 | 0.53 | 0.45 | 98 | 1012.3 |
| 20260507140109 | 73 | 227 | 2.0 | 6.0 | 0.30 | 0.38 | 0.30 | 98 | 1012.5 |
| 20260507135004 | 74 | 301 | 1.0 | 4.0 | 0.06 | 0.14 | 0.06 | 98 | 1012.8 |
| 20260507134558 | 74 | 300 | 1.0 | 4.0 | 0.04 | 0.12 | 0.04 | 98 | 1012.6 |
| 20260507134000 | 75 | 327 | 1.0 | 3.0 | 0.04 | 0.12 | 0.04 | 97 | 1012.3 |
| 20260507133100 | 75 | 324 | 1.0 | 4.0 | 0.00 | 0.08 | 0.00 | 97 | 1012.3 |
| 20260507133000 | 75 | 324 | 1.0 | 4.0 | 0.00 | 0.08 | 0.00 | 98 | 1012.6 |
| 20260507132000 | 76 | 257 | 2.0 | 7.0 | 0.00 | 0.08 | 0.00 | 97 | 1012.4 |
| 20260507131602 | 76 | 244 | 2.0 | 7.0 | 0.00 | 0.08 | 0.00 | 97 | 1012.1 |
| 20260507131000 | 76 | 229 | 2.0 | 8.0 | 0.00 | 0.08 | 0.00 | 97 | 1012.2 |
| 20260507130058 | 76 | 217 | 1.0 | 7.0 | 0.00 | 0.08 | 0.00 | 97 | 1012.0 |
| 20260507125000 | 76 | 274 | 1.0 | 5.0 | 0.00 | 0.08 | 0.00 | 97 | 1012.2 |
| 20260507124600 | 76 | 265 | 1.0 | 6.0 | 0.00 | 0.08 | 0.00 | 97 | 1011.7 |
| 20260507123058 | 76 | 205 | 2.0 | 6.0 | 0.00 | 0.08 | 0.00 | 97 | 1011.6 |
| 20260507123000 | 76 | 232 | 1.0 | 6.0 | 0.00 | 0.08 | 0.00 | 97 | 1012.0 |
| 20260507122000 | 76 | 240 | 2.0 | 9.0 | 0.00 | 0.08 | 0.00 | 97 | 1011.8 |
| 20260507121558 | 76 | 308 | 2.0 | 9.0 | 0.00 | 0.08 | 0.00 | 97 | 1011.5 |
| 20260507121005 | 76 | 256 | 2.0 | 7.0 | 0.00 | 0.08 | 0.00 | 97 | 1011.8 |
| 20260507120058 | 76 | 287 | 3.0 | 12.0 | 0.00 | 0.08 | 0.00 | 97 | 1011.4 |